カタログに戻る

STARLINK-36629

運用中通信SSO
NORAD 67596·PAYLOAD·🇺🇸 United States

打ち上げ Jan 29, 2026 から Vandenberg Space Force Base

Loading…

次のパス (今後24時間)

TLE

最新Source: CelesTrak SupGP

元期: Sep 15, 2026, 03:55 UTC

1 67596C 26018H   26258.16368056  .00003467  00000+0  10767-3 0  2589
2 67596  97.2852 321.6515 0001262  88.1232 126.1286 15.33417743    11

AllMySatでSTARLINK-36629をリアルタイム追跡

Download on the App Store